This is the latest recevied weather packets stored in our database for station/object KCCA. If no packets are shown the sender has not sent any weather packets the latest 10 day(s).
| Time | Temp. | Humidity | Pressure | Rain* | Wind** | Luminosity | Snow |
|---|---|---|---|---|---|---|---|
| 1777950809 | 16.67° C | 82% | 1008.8 hPa | - | - | - | - |
| 1777950211 | 16.67° C | 82% | 1008.8 hPa | - | - | - | - |
| 1777949606 | 16.67° C | 82% | 1008.5 hPa | - | - | - | - |
| 1777949010 | 16.67° C | 82% | 1008.5 hPa | - | - | - | - |
| 1777948407 | 17.78° C | 72% | 1008.5 hPa | - | - | - | - |
| 1777947806 | 17.78° C | 72% | 1008.5 hPa | - | - | - | - |
| 1777947207 | 20° C | 64% | 1008.1 hPa | - | - | - | - |
| 1777946605 | 20° C | 64% | 1008.1 hPa | - | - | - | - |
| 1777946006 | 20.56° C | 60% | 1007.8 hPa | - | - | - | - |
| 1777945408 | 20.56° C | 60% | 1007.8 hPa | - | - | - | - |
| 1777944805 | 20.56° C | 56% | 1007.8 hPa | - | - | - | - |
| 1777944207 | 20.56° C | 56% | 1007.8 hPa | - | - | - | - |
| 1777943606 | 21.67° C | 53% | 1007.5 hPa | - | - | - | - |
| 1777943011 | 21.67° C | 53% | 1007.5 hPa | - | - | - | - |
| 1777942407 | 22.78° C | 49% | 1007.5 hPa | - | - | - | - |
| 1777941804 | 22.78° C | 49% | 1007.5 hPa | - | - | - | - |
| 1777941327 | 22.78° C | 49% | 1007.5 hPa | - | - | - | - |
| 1777940607 | 22.78° C | 49% | 1007.5 hPa | - | - | - | - |
| 1777940007 | 23.89° C | 50% | 1007.5 hPa | - | - | - | - |
| 1777939407 | 23.89° C | 50% | 1007.5 hPa | - | - | - | - |
| 1777938806 | 23.89° C | 47% | 1007.8 hPa | - | - | - | - |
| 1777938207 | 23.89° C | 47% | 1007.8 hPa | - | - | - | - |
| 1777937606 | 25° C | 44% | 1010.5 hPa | - | - | - | - |
| 1777937008 | 25° C | 44% | 1010.5 hPa | - | - | - | - |
| 1777936408 | 25° C | 44% | 1007.8 hPa | - | - | - | - |
* Rain since midnight (hover to see other rain measurements)
** Current wind speed in m/s (hover to see current wind gust speed)